TimeCDT,TemperatureF,Dew PointF,Humidity,Sea Level PressureIn,VisibilityMPH,Wind Direction,Wind SpeedMPH,Gust SpeedMPH,PrecipitationIn,Events,Conditions,WindDirDegrees,DateUTC
12:53 AM,53.1,44.1,71,30.07,10.0,South,8.1,-,N/A,,Clear,190,2013-10-08 05:53:00
1:53 AM,52.0,44.1,74,30.08,10.0,South,8.1,-,N/A,,Clear,190,2013-10-08 06:53:00
2:53 AM,51.1,43.0,74,30.08,10.0,South,8.1,-,N/A,,Clear,180,2013-10-08 07:53:00
3:53 AM,50.0,43.0,77,30.07,10.0,South,8.1,-,N/A,,Clear,190,2013-10-08 08:53:00
4:53 AM,50.0,43.0,77,30.08,10.0,South,8.1,-,N/A,,Clear,190,2013-10-08 09:53:00
5:53 AM,48.0,42.1,80,30.09,10.0,South,8.1,-,N/A,,Clear,170,2013-10-08 10:53:00
6:53 AM,46.9,42.1,83,30.09,10.0,South,6.9,-,N/A,,Clear,170,2013-10-08 11:53:00
7:53 AM,46.9,43.0,86,30.10,10.0,South,5.8,-,N/A,,Clear,170,2013-10-08 12:53:00
8:53 AM,52.0,45.0,77,30.10,10.0,South,9.2,-,N/A,,Clear,180,2013-10-08 13:53:00
9:53 AM,60.1,46.9,62,30.10,10.0,South,9.2,-,N/A,,Clear,190,2013-10-08 14:53:00
10:53 AM,66.9,44.1,44,30.09,10.0,SSW,16.1,24.2,N/A,,Clear,200,2013-10-08 15:53:00
11:53 AM,70.0,43.0,38,30.08,10.0,South,17.3,24.2,N/A,,Clear,190,2013-10-08 16:53:00
12:53 PM,72.0,44.1,37,30.06,10.0,South,21.9,28.8,N/A,,Clear,180,2013-10-08 17:53:00
1:53 PM,73.9,42.1,32,30.04,10.0,South,17.3,26.5,N/A,,Clear,180,2013-10-08 18:53:00
2:53 PM,75.0,43.0,32,30.03,10.0,South,17.3,26.5,N/A,,Clear,180,2013-10-08 19:53:00
3:53 PM,75.0,44.1,33,30.02,10.0,South,16.1,28.8,N/A,,Clear,190,2013-10-08 20:53:00
4:53 PM,73.9,43.0,33,30.01,10.0,South,13.8,23.0,N/A,,Clear,180,2013-10-08 21:53:00
5:53 PM,72.0,44.1,37,30.01,10.0,South,11.5,19.6,N/A,,Clear,180,2013-10-08 22:53:00
6:53 PM,66.9,44.1,44,30.02,10.0,South,8.1,-,N/A,,Clear,170,2013-10-08 23:53:00
7:53 PM,64.0,44.1,48,30.03,10.0,South,8.1,-,N/A,,Clear,170,2013-10-09 00:53:00
8:53 PM,62.1,45.0,53,30.04,10.0,SSE,6.9,-,N/A,,Clear,160,2013-10-09 01:53:00
9:53 PM,60.1,46.0,60,30.04,10.0,SSE,6.9,-,N/A,,Clear,160,2013-10-09 02:53:00
10:53 PM,57.9,46.9,67,30.05,10.0,South,8.1,-,N/A,,Clear,170,2013-10-09 03:53:00
11:53 PM,57.0,46.9,69,30.04,10.0,SSE,6.9,-,N/A,,Clear,160,2013-10-09 04:53:00